Regional Weather Roundup
Issued by NWS Green Bay, WI

Home | Current Version | Previous Version | Graphics & Text | Print | Product List | Glossary Off
Versions: 1 2 3 4 5 6 7 8 9 10 11 12 13 14 15 16 17 18 19 20 21 22 23 24 25 26 27 28 29 30 31 32 33 34 35 36 37 38 39 40 41 42 43 44 45 46 47 48 49 50

000
ASUS43 KGRB 310100
RWRGRB

NORTH-CENTRAL AND NORTHEAST WISCONSIN REGIONAL WEATHER ROUNDUP
NATIONAL WEATHER SERVICE GREEN BAY WI
800 PM CDT TUE AUG 30 2016

WIZ005-009-010>012-018-019-310200-
NORTH CENTRAL WISCONSIN

CITY           SKY/WX    TMP DP  RH WIND       PRES   REMARKS
IRONWOOD       CLEAR     60  57  89 CALM      30.14R
MANITOWISH WTR NOT AVBL
ARBOR VITAE    NOT AVBL
EAGLE RIVER    NOT AVBL
LAND O LAKES   NOT AVBL
RHINELANDER    CLEAR     66  51  58 N6        30.13R
PHILLIPS       CLEAR     65  57  75 NW5       30.13R
ANTIGO         NOT AVBL
TOMAHAWK       NOT AVBL
MERRILL        CLEAR     68  60  75 N5        30.11R
$$

WIZ013-073-310200-
NORTHEAST WISCONSIN

CITY           SKY/WX    TMP DP  RH WIND       PRES   REMARKS
IRON MOUNTAIN  CLEAR     68  52  56 N9        30.07R
MARINETTE      MOCLDY   N/A N/A N/A N5        30.04R
$$

WIZ017-030-035>037-045-310200-
CENTRAL WISCONSIN

CITY           SKY/WX    TMP DP  RH WIND       PRES   REMARKS
MEDFORD        NOT AVBL
WAUSAU         CLEAR     72  59  63 NW6       30.07S
MOSINEE        NOT AVBL
MARSHFIELD     CLOUDY    68  61  78 NW8       30.10R
WISC RAPIDS    PTCLDY    73  64  73 N6        30.09R
STEVENS POINT  NOT AVBL
WAUPACA        NOT AVBL
SHAWANO        NOT AVBL
CLINTONVILLE   PTCLDY    75  63  64 N6        30.04R
WAUTOMA        PTCLDY    73  67  81 NW6       30.06R
$$

WIZ038-039-048-051-310200-
FOX VALLEY

CITY           SKY/WX    TMP DP  RH WIND       PRES   REMARKS
NWS GREEN BAY  PTCLDY    76  69  79 N10       30.03R
APPLETON       MOCLDY    77  63  61 NW8       30.02S
OSHKOSH        PTCLDY    76  65  68 W5        30.03S
FOND DU LAC    PTCLDY    75  66  73 W6        30.03S
$$

WIZ022-050-052-310200-
EAST CENTRAL WISCONSIN

CITY           SKY/WX    TMP DP  RH WIND       PRES   REMARKS
EPHRAIM        NOT AVBL
WASHINGTON ISL NOT AVBL
STURGEON BAY   CLOUDY    75  65  70 N10       30.04R
MANITOWOC      NOT AVBL
SHEBOYGAN      PTCLDY    71  67  87 CALM      30.02S
$$

LMZ563-521-522-541>543-310200-
LAKESHORE

STATION/POSITION TIME  TEMP    WIND        PRES    VSBY  WAVE
                       AIR SEA DIR/SP/G                  HT/PER
                 (UTC) (F)     (DEG/KT/KT) (MB)    (MI)  (FT/S)
SHEBOYGAN LKSHOR 0000   81     280/  3/  5 1015.6F
KEWAUNEE LKSHORE 0000   71                 1015.5F
NORTHPORT PIER   0000   74     330/  6/  7 1016.3F
N MID LAKE BUOY  2350   73 72  340/ 10/ 12 1015.9S         1
CHAMBERS ISLAND  0000   76     310/  5/  6 1016.3S
MENOMINEE LKSHOR 0000   72                 1015.9R
$$




USA.gov is the U.S. government's official web portal to all federal, state and local government web resources and services.